{"data":{"norad_id":41021,"epoch":"2026-09-19T21:21:25.949952Z","epoch_age_seconds":74839,"freshness":"FRESH","line1":"1 41021U 15063A   26262.88988368 -.00000328  00000+0  00000+0 0  9991","line2":"2 41021   0.5113  86.5999 0009793 115.7114 220.2849  1.00269984 39923","mean_motion":1.00269984,"eccentricity":0.0009793,"inclination_deg":0.5113,"raan_deg":86.5999,"arg_perigee_deg":115.7114,"mean_anomaly_deg":220.2849,"bstar":0,"rev_number":3992,"period_min":1436.1226984937,"perigee_km":35745.807437974,"apogee_km":35828.392270877,"semimajor_km":42165.236854426,"source":"CELESTRAK","updated_at":"2026-09-20T09:00:35.220813Z"}}